Regional Weather Roundup
Issued by NWS

Home | Current Version | Previous Version | Text Only | Print | Product List | Glossary On
Versions: 1 2 3 4 5 6 7 8 9 10 11 12 13 14 15 16 17 18 19 20 21 22 23 24 25 26 27 28 29 30 31 32 33 34 35 36 37 38 39 40 41 42 43 44 45 46 47 48 49 50
000
ASCA44 KEWX 071320
RWRMX

LATIN AMERICA AND CARIBBEAN REGIONAL WEATHER ROUNDUP
NATIONAL WEATHER SERVICE AUSTIN/SAN ANTONIO TX
700 AM CST SUN FEB 07 2016

NOTE: "FAIR" INDICATED FEW OR NO CLOUDS BELOW 12,000 FEET WITH NO
SIGNIFICANT WEATHER AND/OR OBSTRUCTIONS TO VISIBILITY.

BAJA CALIFORNIA

CITY           SKY/WX    TMP DP  RH WIND       PRES   REMARKS
LA PAZ         MOCLDY    66  48  52 NE8       30.03
S.J. DEL CABO  PTCLDY    64  41  42 W12       30.00
TIJUANA        CLEAR     54  18  24 CALM      30.13F

NORTHWESTERN MEXICO

CITY           SKY/WX    TMP DP  RH WIND       PRES   REMARKS
DURANGO        CLOUDY    37   1  22 SE2       30.36

NORTHEASTERN MEXICO

CITY           SKY/WX    TMP DP  RH WIND       PRES   REMARKS
MATAMOROS      PTCLDY    39  32  75 CALM      30.35
MONTERREY      PTCLDY    39  18  41 W8        30.30R WCI  34
REYNOSA        PTCLDY    34  23  64 SW2       30.32
SALTILLO       MOCLDY    41  30  65 CALM      30.35
TORREON        PTCLDY    43  19  39 CALM        N/A
CD. VICTORIA   PTCLDY    39  28  65 CALM      30.33

WESTERN MEXICO

CITY           SKY/WX    TMP DP  RH WIND       PRES   REMARKS
DEL BAJIO        N/A    N/A N/A N/A MISG        N/A
GUADALAJARA    PTCLDY    50  25  37 E6        30.27  WCI  48
MAZATLAN       MOCLDY    57  55  94 E3        29.92R
P. VALLARTA      N/A    N/A N/A N/A MISG        N/A
ZACATECAS        N/A    N/A N/A N/A MISG        N/A

CENTRAL MEXICO

CITY           SKY/WX    TMP DP  RH WIND       PRES   REMARKS
CUERNAVACA     PTCLDY    54  34  47 CALM      30.24
MEXICO CITY    PTCLDY    37  27  65 NE5       30.42R WCI  34
MORELIA          N/A    N/A N/A N/A MISG        N/A
POZA RICA      MOCLDY    61  59  94 NW7       30.33
QUERETARO      MOCLDY    39  36  87 E9        30.41  WCI  33
S. LUIS POTOSI MOCLDY    32  28  86 CALM      30.39  FOG
TAMPICO        PTCLDY    50  43  76 W6        30.33R WCI  48
TOLUCA         PTCLDY    32  27  80 E3        30.42R

SOUTHERN MEXICO

CITY           SKY/WX    TMP DP  RH WIND       PRES   REMARKS
ACAPULCO       PTCLDY    75  72  88 CALM      29.90R
B. DE HUATULCO MOCLDY    68  63  83 NW7       29.96
OAXACA         PTCLDY    46  41  81 N3        30.36R
VERACRUZ       CLEAR     64  57  77 N5        30.30R
ZIHUATANEJO    PTCLDY    68  63  83 CALM      29.91

YUCATAN PENINSULA

CITY           SKY/WX    TMP DP  RH WIND       PRES   REMARKS
CAMPECHE       PTCLDY    68  54  60 N14G25    30.18R
CANCUN         MOCLDY    61  59  94 W3        30.14R
CHETUMAL       MOCLDY    64  63  94 CALM      30.19
CD. DEL CARMEN PTCLDY    70  57  64 N16       30.22
COZUMEL        PTCLDY    63  57  82 NW16      30.14R
MERIDA         PTCLDY    63  48  59 NW5       30.19R
MINATITLAN     CLOUDY    70  66  88 N16       30.19
TAPACHULA      PTCLDY    75  64  69 CALM      29.92R
TUX. GUTIERREZ MOCLDY    63  55  77 NW12      30.18R

CENTRAL AMERICA

CITY           SKY/WX    TMP DP  RH WIND       PRES   REMARKS
BELIZE CITY    MOCLDY    66  64  94 NW12      30.18R
MANAGUA        MOSUNNY   73  64  73 SE7       29.92S

CARIBBEAN

CITY           SKY/WX    TMP DP  RH WIND       PRES   REMARKS
ARUBA          MOSUNNY   82  73  74 E22       29.92S
CURACAO        MOSUNNY   82  75  78 SE22G35   29.94S
KINGSTON       MOSUNNY   77  68  73 NW5       29.97S
NASSAU         LGT RAIN  66  59  77 MISG      29.96
SAN JUAN       CLOUDY    72  72 100 SW5       30.08R
SANTO DOMINGO  LGT RAIN  72  72 100 CALM      30.00
ST. CROIX      MOSUNNY   82  72  69 E16       30.07R
ST. KITTS      MOSUNNY   82  70  65 E13       30.06S
ST. MAARTEN    MOSUNNY   81  70  69 SE13      30.06S
ST. THOMAS     MOSUNNY   81  72  74 SE17      30.06R

$$




USA.gov is the U.S. government's official web portal to all federal, state and local government web resources and services.